Dayton, OH

9:20 AM EDT on September 30, 2016 (GMT -0400)
Cox-Dayton International

Weather History for KDAY - June, 2012

Change the Weather History Date:

Wednesday, June 6, 2012

  Actual Average Record
Temperature  
Mean Temperature 62 °F 68 °F  
Max Temperature 76 °F 78 °F 97 °F (1925)
Min Temperature 48 °F 58 °F 41 °F (1998)
Degree Days  
Heating Degree Days 3 2  
Month to date heating degree days 21 12  
Since 1 June heating degree days 21 12  
Since 1 July heating degree days 4606 5632  
Cooling Degree Days 0 5  
Month to date cooling degree days 3 25  
Year to date cooling degree days 186 95  
Since 1 June cooling degree days 3 25  
Growing Degree Days 12 (Base 50)    
Moisture  
Dew Point 44 °F    
Average Humidity 55    
Maximum Humidity 80    
Minimum Humidity 29    
Precipitation  
Precipitation 0.00 in 0.15 in 1.88 in (1948)
Month to date precipitation 0.59 0.88  
Year to date precipitation 13.46 17.92  
Snow  
Snow 0.00 in 0.00 in 0.00 in ()
Month to date snowfall 0.0 0.0  
Since 1 June snowfall 0.0 0.0  
Since 1 July snowfall 9.2 23.3  
Snow Depth 0.00 in    
Sea Level Pressure  
Sea Level Pressure 30.02 in    
Wind  
Wind Speed 6 mph (NNE)    
Max Wind Speed 16 mph    
Max Gust Speed 21 mph    
Visibility 10 miles    
Events      
T = Trace of Precipitation, MM = Missing Value Source: NWS Daily Summary

Daily Weather History Graph

Daily Weather History Graph

Search for Another Location

Airport or City:

Trip Planner

Search our weather history database for the weather conditions in past years. The results will help you decide how hot, cold, wet, or windy it might be!

Date:

Astronomy

Jun. 06, 2012 Rise Set
Actual Time 6:08 AM EDT 9:03 PM EDT
Civil Twilight 5:36 AM EDT 9:35 PM EDT
Nautical Twilight 4:55 AM EDT 10:16 PM EDT
Astronomical Twilight 4:08 AM EDT 11:03 PM EDT
Moon 11:14 PM EDT (6/6) 8:28 AM EDT (6/6)
Length of Visible Light 15h 59m
Length of Day
14h 54m
Waning Gibbous, 93% of the Moon is Illuminated
Jun 6
Waning Gibbous
Jun 11
Last Quarter
Jun 19
New
Jun 26
First Quarter
Jul 3
Full

Hourly Weather History & Observations

Time (EDT) Temp. Dew Point Humidity Pressure Visibility Wind Dir Wind Speed Gust Speed Precip Events Conditions
12:56 AM 53.1 °F 45.0 °F 74% 29.99 in 10.0 mi NNE 4.6 mph - N/A   Scattered Clouds
1:56 AM 53.1 °F 45.0 °F 74% 29.99 in 10.0 mi North 5.8 mph - N/A   Partly Cloudy
2:56 AM 51.8 °F 42.8 °F 71% 29.99 in 10.0 mi Calm Calm - N/A   Partly Cloudy
3:56 AM 50.0 °F 43.0 °F 77% 30.00 in 10.0 mi North 4.6 mph - N/A   Mostly Cloudy
4:56 AM 48.0 °F 42.1 °F 80% 30.00 in 10.0 mi North 5.8 mph - N/A   Scattered Clouds
5:56 AM 48.2 °F 42.8 °F 82% 30.01 in 10.0 mi North 6.9 mph - N/A   Partly Cloudy
6:56 AM 50.0 °F 45.0 °F 83% 30.01 in 10.0 mi North 4.6 mph - N/A   Partly Cloudy
7:56 AM 55.0 °F 46.9 °F 74% 30.03 in 10.0 mi NNE 9.2 mph - N/A   Clear
8:56 AM 60.1 °F 48.0 °F 64% 30.05 in 10.0 mi NE 10.4 mph - N/A   Clear
9:56 AM 64.0 °F 48.0 °F 56% 30.05 in 10.0 mi NE 10.4 mph - N/A   Partly Cloudy
10:56 AM 66.0 °F 48.0 °F 52% 30.05 in 10.0 mi ENE 9.2 mph - N/A   Partly Cloudy
11:56 AM 70.0 °F 46.9 °F 44% 30.04 in 10.0 mi NE 13.8 mph 19.6 mph N/A   Scattered Clouds
12:56 PM 71.1 °F 46.0 °F 41% 30.04 in 10.0 mi ENE 10.4 mph - N/A   Scattered Clouds
1:56 PM 72.0 °F 44.1 °F 37% 30.03 in 10.0 mi Calm Calm - N/A   Scattered Clouds
2:56 PM 73.0 °F 43.0 °F 34% 30.02 in 10.0 mi NE 9.2 mph - N/A   Scattered Clouds
3:56 PM 73.0 °F 43.0 °F 34% 30.01 in 10.0 mi ENE 8.1 mph 17.3 mph N/A   Partly Cloudy
4:56 PM 75.2 °F 42.8 °F 31% 30.01 in 10.0 mi NE 10.4 mph - N/A   Scattered Clouds
5:56 PM 71.6 °F 42.8 °F 35% 30.01 in 10.0 mi NE 3.5 mph - N/A   Scattered Clouds
6:56 PM 73.9 °F 39.0 °F 28% 30.00 in 10.0 mi ENE 6.9 mph - N/A   Scattered Clouds
7:56 PM 72.0 °F 41.0 °F 33% 30.01 in 10.0 mi NE 6.9 mph - N/A   Scattered Clouds
8:56 PM 69.1 °F 41.0 °F 36% 30.01 in 10.0 mi NNE 3.5 mph - N/A   Partly Cloudy
9:56 PM 66.0 °F 39.9 °F 38% 30.03 in 10.0 mi Calm Calm - N/A   Partly Cloudy
10:56 PM 62.1 °F 41.0 °F 46% 30.05 in 10.0 mi NNE 3.5 mph - N/A   Clear
11:56 PM 60.1 °F 42.1 °F 51% 30.05 in 10.0 mi North 6.9 mph - N/A   Clear